19.9,36.7,1020.7,202108110030
19.7,38.2,1020.8,202108110100
19.5,39.0,1020.9,202108110130
19.3,39.2,1020.8,202108110200
19.1,40.2,1020.8,202108110230
19.1,42.2,1020.9,202108110300
19.1,39.7,1020.9,202108110330
18.6,52.5,1020.8,202108110400
18.3,55.2,1021.0,202108110430
19.2,54.7,1021.0,202108110500
28.0,11.6,1021.0,202108110530
26.3,13.1,1021.1,202108110600
24.1,22.5,1021.1,202108110630
24.8,19.8,1021.2,202108110700
26.0,14.1,1021.4,202108110730
26.3,12.0,1021.5,202108110800
25.7,14.3,1021.4,202108110830
25.5,14.8,1021.5,202108110900
26.5,10.8,1021.3,202108110930
26.3,10.5,1021.3,202108111000
25.4,13.3,1021.1,202108111030
26.2,12.1,1021.3,202108111100
25.6,15.8,1021.2,202108111130
26.3,10.1,1021.2,202108111200
26.7,10.3,1021.1,202108111230
26.9,9.0,1020.9,202108111300
26.7,10.8,1020.6,202108111330
26.1,11.6,1020.4,202108111400
26.2,10.1,1020.5,202108111430
26.6,7.6,1020.6,202108111500
26.0,11.3,1020.6,202108111530
26.3,11.1,1020.1,202108111600
26.2,12.8,1020.1,202108111630
26.2,13.0,1020.2,202108111700
25.4,16.5,1020.4,202108111730
24.8,18.1,1020.4,202108111800
24.2,21.3,1020.8,202108111830
23.5,26.7,1021.1,202108111900
22.9,29.3,1021.3,202108111930
22.5,35.9,1021.4,202108112000
21.9,41.4,1021.6,202108112030
21.8,43.7,1021.6,202108112100
21.1,51.5,1021.7,202108112130
20.6,59.0,1021.8,202108112200
20.4,62.0,1021.8,202108112230
20.1,63.9,1021.7,202108112300
20.1,58.5,1021.7,202108112330
19.9,57.7,1021.8,202108120000
19.7,60.2,1021.8,202108120030
19.2,67.3,1021.8,202108120100
18.7,74.9,1021.7,202108120130
18.9,71.8,1021.7,202108120200
19.1,69.8,1021.6,202108120230
18.4,81.1,1021.6,202108120300
18.4,83.3,1021.6,202108120330
18.5,82.0,1021.6,202108120400
18.3,85.8,1021.6,202108120430
18.7,84.5,1021.6,202108120500
22.3,44.2,1021.7,202108120530
24.3,36.0,1021.9,202108120600
26.8,23.1,1021.9,202108120630
27.3,19.3,1022.1,202108120700
25.3,29.2,1022.2,202108120730
24.8,42.5,1022.2,202108120800
29.0,19.2,1022.2,202108120830
27.1,24.3,1022.1,202108120900
26.5,22.7,1022.1,202108120930
25.8,28.1,1022.1,202108121000
25.2,28.1,1022.0,202108121030
26.3,23.3,1021.8,202108121100
26.1,23.3,1021.7,202108121130
26.4,23.1,1021.6,202108121200
27.1,17.5,1021.5,202108121230
27.3,15.8,1021.5,202108121300
28.4,12.0,1021.4,202108121330
28.4,9.8,1021.3,202108121400
28.2,10.1,1021.2,202108121430
28.2,8.1,1021.2,202108121500
28.1,8.6,1021.0,202108121530
28.1,7.8,1020.9,202108121600
28.3,7.9,1020.7,202108121630
27.5,13.6,1020.7,202108121700
27.3,14.6,1020.5,202108121730
26.1,22.2,1020.4,202108121800
25.5,27.1,1020.7,202108121830
25.2,27.1,1021.2,202108121900
25.1,26.6,1021.6,202108121930
25.0,26.8,1021.6,202108122000
24.8,27.3,1021.5,202108122030
24.7,24.0,1021.4,202108122100
24.7,24.0,1021.4,202108122130
24.4,25.5,1021.7,202108122200
24.5,23.8,1022.0,202108122230
23.7,35.4,1021.9,202108122300
23.5,42.7,1021.6,202108122330
22.8,47.0,1021.3,202108130000
